User: anonymous   Login
Location: Mt. Bigelow
(32.4165°N, 110.7345°W)
Time: 20:26:39
(UTC-07:00)
Language:

Tiangong 2 - Orbit

View from above orbital plane
View from above orbital plane
View from above satellite
View from above satellite

Ground track
Ground track

The orbit data is extracted from the following two-line orbital elements,

1 41765U 16057A   18174.78878642 -.00006820  00000-0 -80811-4 0  9993
2 41765  42.7835 301.0209 0007863 305.0936 217.3295 15.58891339101057
Epoch (UTC): 23 June 2018 18:55:51
Eccentricity: 0.0007863
inclination: 42.7835°
perigee height: 385 km
apogee height: 396 km
right ascension of ascending node: 301.0209°
argument of perigee: 305.0936°
revolutions per day: 15.58891339
mean anomaly at epoch: 217.3295°
orbit number at epoch: 10105

The dashed part of the orbit path shows where the satellite is in the earth's shadow,  

DLR